Weather History for Teterboro, NJ

Change the Weather History Date:

Friday, October 5, 2012

  Actual Average Record
Temperature  
Mean Temperature 68 °F -  
Max Temperature 82 °F 67 °F 90 °F (2007)
Min Temperature 55 °F 47 °F 37 °F (1996)
Cooling Degree Days 2    
Growing Degree Days 18 (Base 50)    
Moisture  
Dew Point 57 °F    
Average Humidity 79    
Maximum Humidity 100    
Minimum Humidity 40    
Precipitation  
Precipitation 0.00 in - - ()
Sea Level Pressure  
Sea Level Pressure 30.02 in    
Wind  
Wind Speed 1 mph (WSW)    
Max Wind Speed 10 mph    
Max Gust Speed 17 mph    
Visibility 6 miles    
Events Fog    
Averages and records for this station are not official NWS values.
T = Trace of Precipitation, MM = Missing Value Source: NWS Daily Summary

Daily Weather History Graph

Daily Weather History Graph

Search for Another Location

Airport:

Trip Planner

Search our weather history database for the weather conditions in past years. The results will help you decide how hot, cold, wet, or windy it might be!

Date:

Astronomy

Oct. 05, 2012 Rise Set
Actual Time 6:57 AM EDT 6:30 PM EDT
Civil Twilight 6:29 AM EDT 6:58 PM EDT
Nautical Twilight 5:58 AM EDT 7:29 PM EDT
Astronomical Twilight 5:26 AM EDT 8:01 PM EDT
Moon 9:50 PM EDT (10/5) 12:04 PM EDT (10/5)
Length of Visible Light 12h 28m
Length of Day
11h 33m
Waning Gibbous, 74% of the Moon is Illuminated
Oct 5
Waning Gibbous
Oct 8
Last Quarter
Oct 15
New
Oct 21
First Quarter
Oct 29
Full

Hourly Weather History & Observations

Time (EDT) Temp. Heat Index Dew Point Humidity Pressure Visibility Wind Dir Wind Speed Gust Speed Precip Events Conditions
12:51 AM 62.1 °F - 62.1 °F 100% 30.04 in 10.0 mi Calm Calm - N/A Fog Shallow Fog
1:30 AM 60.8 °F - 60.8 °F 100% 30.05 in 0.5 mi Calm Calm - N/A Fog Fog
1:40 AM 62.6 °F - 60.8 °F 94% 30.05 in 2.0 mi Calm Calm - N/A Fog Patches of Fog
1:43 AM 62.6 °F - 60.8 °F 94% 30.05 in 1.0 mi Calm Calm - N/A Fog Patches of Fog
1:51 AM 62.1 °F - 61.0 °F 96% 30.05 in 0.8 mi Calm Calm - N/A Fog Patches of Fog
1:53 AM 62.6 °F - 60.8 °F 94% 30.05 in 1.5 mi Calm Calm - N/A Fog Patches of Fog
2:07 AM 62.6 °F - 60.8 °F 94% 30.05 in 0.8 mi Calm Calm - N/A Fog Patches of Fog
2:20 AM 59.0 °F - 57.2 °F 94% 30.04 in 0.5 mi Calm Calm - N/A Fog Patches of Fog
2:38 AM 60.8 °F - 60.8 °F 100% 30.04 in 1.0 mi Calm Calm - N/A Fog Patches of Fog
2:51 AM 59.0 °F - 57.9 °F 96% 30.05 in 10.0 mi Calm Calm - N/A Fog Patches of Fog
3:51 AM 60.1 °F - 59.0 °F 96% 30.04 in 5.0 mi Calm Calm - N/A Fog Patches of Fog
4:24 AM 57.2 °F - 57.2 °F 100% 30.04 in 5.0 mi Calm Calm - N/A Fog Patches of Fog
4:51 AM 57.0 °F - 55.9 °F 96% 30.04 in 0.2 mi Calm Calm - N/A Fog Fog
5:19 AM 57.2 °F - 55.4 °F 94% 30.05 in 0.2 mi Calm Calm - N/A Fog Fog
5:51 AM 55.9 °F - 55.9 °F 100% 30.06 in 0.2 mi Calm Calm - N/A Fog Fog
6:10 AM 55.4 °F - 55.4 °F 100% 30.06 in 0.5 mi Calm Calm - N/A Fog Fog
6:45 AM 57.2 °F - 55.4 °F 94% 30.06 in 1.0 mi Calm Calm - N/A Fog Patches of Fog
6:48 AM 57.2 °F - 55.4 °F 94% 30.06 in 10.0 mi Calm Calm - N/A Fog Patches of Fog
6:51 AM 57.9 °F - 55.9 °F 93% 30.06 in 10.0 mi Calm Calm - N/A Fog Patches of Fog
7:51 AM 60.1 °F - 57.9 °F 93% 30.06 in 10.0 mi Calm Calm - N/A Fog Shallow Fog
8:51 AM 64.9 °F - 59.0 °F 81% 30.07 in 10.0 mi WNW 3.5 mph - N/A   Clear
9:51 AM 69.1 °F - 57.0 °F 65% 30.06 in 10.0 mi Calm Calm - N/A   Clear
10:51 AM 72.0 °F - 55.9 °F 57% 30.06 in 10.0 mi NW 3.5 mph - N/A   Clear
11:51 AM 75.9 °F - 55.9 °F 50% 30.04 in 10.0 mi WNW 3.5 mph - N/A   Clear
12:51 PM 78.1 °F - 53.1 °F 42% 30.02 in 10.0 mi Calm Calm - N/A   Clear
1:51 PM 80.1 °F 80.1 °F 55.0 °F 42% 29.99 in 10.0 mi NW 6.9 mph - N/A   Clear
2:51 PM 80.1 °F 80.0 °F 54.0 °F 40% 29.96 in 10.0 mi Variable 3.5 mph - N/A   Clear
3:51 PM 80.1 °F 80.1 °F 55.0 °F 42% 29.94 in 10.0 mi SSW 10.4 mph 17.3 mph N/A   Partly Cloudy
4:51 PM 79.0 °F - 55.0 °F 44% 29.94 in 10.0 mi Variable 6.9 mph 16.1 mph N/A   Clear
5:51 PM 77.0 °F - 55.0 °F 47% 29.95 in 10.0 mi SW 9.2 mph - N/A   Clear
6:51 PM 75.0 °F - 55.9 °F 51% 29.95 in 10.0 mi SSW 4.6 mph - N/A   Clear
7:51 PM 72.0 °F - 57.0 °F 59% 29.95 in 10.0 mi SW 5.8 mph - N/A   Clear
8:51 PM 68.0 °F - 57.0 °F 68% 29.94 in 10.0 mi SSW 3.5 mph - N/A   Clear
9:51 PM 66.9 °F - 57.0 °F 70% 29.94 in 10.0 mi South 3.5 mph - N/A   Clear
10:51 PM 66.9 °F - 57.0 °F 70% 29.93 in 10.0 mi Calm Calm - N/A   Clear
11:51 PM 64.0 °F - 57.0 °F 78% 29.92 in 10.0 mi Calm Calm - N/A   Clear